SCP
0 0 0 -0 -0 0 0 0 0 0 0 0 0 0 0 0 0 0 0 0 0 0 0 0 0 0 0 0 0 0 0 0 -0 0 0 0 1 1 1 1 0 0 0
0 0 0 0 0 0 0 -0 0 0 0 0 0 0 0 0 0 0 0 0 0 0 0 0 0 0 0 0 0 1 0 0 0 0 1 0 0 1 1 1 1 0 0
0 0 0 0 0 0 0 0 0 0 0 0 0 0 0 0 0 0 0 0 0 0 0 0 0 0 0 0 0 0 0 0 0 0 0 0 0 1 1 1 1 1 0
1 1 0 0 0 0 0 0 0 0 0 0 0 0 0 0 0 0 0 0 0 0 0 0 0 0 0 1 0 0 0 0 0 0 0 0 0 1 1 0 0 0 0
0 0 0 0 0 0 0 1 1 0 0 0 0 0 0 0 0 0 0 1 1 0 0 0 0 0 0 1 0 1 1 0 0 1 0 0 1 1 1 1 0 0 0
-0 -0 0 0 0 0 0 0 1 1 0 1 0 0 1 0 0 0 1 1 1 1 1 1 1 0 0 0 0 0 0 1 1 0 0 0 1 1 1 1 1 0 0
-0 -0 0 0 0 0 0 0 0 0 1 0 0 0 0 1 0 0 0 0 1 1 1 1 0 0 1 1 0 0 0 0 0 1 1 1 0 1 2 2 2 1 0
-0 -0 -0 0 0 0 0 0 0 0 0 0 0 0 1 1 0 0 0 1 1 1 1 1 1 1 1 1 1 1 1 1 1 0 1 1 1 1 1 2 2 2 2
-0 -0 -0 -0 0 0 0 0 0 0 0 0 0 0 0 0 0 0 0 1 0 1 1 1 1 1 1 1 1 1 1 1 0 1 1 1 1 0 0 2 3 3 1
0 0 0 0 0 0 0 0 0 0 0 0 0 0 0 0 0 0 0 0 0 0 1 1 0 0 1 0 1 1 1 0 1 0 2 1 0 0 0 1 3 3 2
0 0 0 0 0 0 0 0 0 0 0 0 0 0 0 0 0 0 0 0 0 1 1 1 3 0 0 0 0 1 1 1 1 1 1 2 2 3 3 1 3 3 1
0 0 0 0 0 0 0 0 0 0 0 0 0 0 0 0 0 0 0 0 0 0 1 2 1 0 0 0 0 0 0 0 1 1 2 2 2 2 3 0 0 0 0
0 0 0 0 0 0 0 0 0 0 0 0 0 0 0 0 0 0 0 0 0 0 0 0 0 0 0 0 0 0 0 0 0 1 1 1 3 2 0 0 0 0 0
0 0 0 0 0 0 0 0 0 0 0 0 0 0 0 0 0 0 0 0 0 0 0 0 0 0 0 0 0 0 0 0 0 0 1 0 0 0 0 0 0 0 0
0 0 0 0 1 0 0 0 0 0 0 0 0 0 0 0 0 0 0 0 0 0 0 0 0 0 0 0 0 0 0 0 0 0 0 0 0 0 0 0 0 0 0
0 0 0 0 0 0 0 0 0 0 0 0 0 0 0 0 0 0 0 0 0 0 0 0 0 0 0 0 0 0 0 0 0 0 0 0 0 0 0 0 0 0 0
-0 0 0 0 0 0 0 0 0 0 0 0 0 0 0 0 0 0 0 0 0 0 0 0 0 0 0 0 0 0 0 0 0 0 0 0 0 0 0 0 0 0 0
-0 0 0 0 0 0 0 0 0 0 0 0 0 0 0 0 0 0 0 0 0 0 0 0 0 0 0 0 0 0 0 0 0 0 0 0 0 0 0 0 0 0 0
0 -0 0 0 0 0 0 0 0 0 0 0 0 0 0 0 0 0 0 0 0 0 0 0 0 0 0 0 0 0 0 0 0 0 0 0 0 0 0 0 0 0 0
0 0 0 0 0 0 0 0 0 0 0 0 0 0 0 0 0 0 0 0 0 0 0 0 0 0 0 0 0 0 0 0 0 0 0 0 0 0 0 0 0 0 0
0 0 0 0 0 0 0 0 0 0 0 0 0 0 0 0 0 0 0 0 0 0 0 0 0 0 0 0 0 0 0 0 0 0 0 0 0 0 -0 -0 -0 -0 0
0 0 0 0 0 0 0 0 0 0 0 0 0 0 0 0 0 0 0 0 0 0 0 0 0 0 0 0 0 0 0 0 0 0 0 -0 -0 -0 -0 -0 -0 0 0
0 0 0 0 0 0 0 0 0 0 0 0 0 0 0 0 0 0 0 0 0 0 0 0 0 0 0 0 0 0 0 0 -0 -0 -0 -0 -0 -0 -0 0 0 0 0
0 0 0 0 0 0 0 0 0 0 0 0 0 0 0 0 0 0 0 0 0 0 0 0 0 0 0 0 0 0 -0 -0 -0 -0 -0 -0 0 0 0 0 0 0 0
0 0 0 0 0 0 0 0 0 0 0 0 0 0 0 0 0 0 0 0 0 0 0 0 0 0 0 0 -0 0 0 0 -0 0 -0 0 -0 0 0 0 0 0 0
0 0 0 0 0 0 0 0 0 0 0 0 0 0 0 -0 -0 0 0 0 0 0 0 0 0 0 0 -0 0 0 0 0 0 0 0 0 0 0 0 0 0 0 0
Wind_Speed_500mb
39 39 39 35 34 33 32 29 28 30 32 31 34 30 29 29 32 31 30 31 22 19 24 22 23 27 24 23 23 23 28 23 26 21 11 10 10 9 18 24 21 25 20
43 41 42 38 36 33 32 32 29 29 34 33 33 30 33 33 33 31 33 28 31 28 27 27 26 23 29 24 29 22 24 28 23 31 22 18 15 19 25 26 19 23 27
41 42 41 40 40 41 38 35 34 34 33 32 35 33 31 31 30 32 33 30 31 32 31 32 30 31 29 34 29 26 24 24 26 26 26 25 24 16 26 28 27 34 34
45 44 41 44 41 40 40 41 37 45 42 38 39 36 33 34 35 35 36 34 36 34 35 36 31 34 33 36 29 31 32 34 32 28 29 34 30 34 30 28 30 34 32
41 45 43 41 40 41 43 47 40 39 41 37 39 39 38 38 40 42 40 39 40 33 36 36 35 37 36 40 34 31 35 30 29 35 39 35 32 30 35 32 34 33 30
40 36 37 40 38 35 35 37 42 43 41 37 40 47 45 41 44 47 49 40 44 48 43 41 44 47 50 54 54 47 44 40 41 37 36 35 31 30 27 30 35 46 38
38 34 31 34 32 33 27 27 29 35 39 39 38 41 48 50 51 52 51 55 54 50 49 46 41 39 44 47 45 47 50 53 54 50 51 50 48 42 40 45 47 51 45
35 34 30 31 32 30 32 31 34 37 39 41 44 42 40 39 46 47 50 56 53 53 56 53 51 51 52 48 49 44 50 48 49 55 63 60 56 52 50 50 51 47 39
32 32 30 30 32 34 35 34 34 36 37 38 38 41 44 46 43 46 48 52 48 53 53 54 56 61 57 58 60 58 54 52 43 53 54 52 49 50 50 45 45 45 49
24 24 23 23 22 21 20 20 21 24 25 28 31 33 39 37 35 45 44 43 47 47 50 51 50 54 57 55 56 56 58 59 50 48 53 53 59 57 56 59 56 55 54
21 22 23 23 20 17 17 17 19 21 24 26 30 35 39 42 43 42 42 42 43 50 51 50 41 51 52 51 55 59 63 62 57 53 56 58 57 58 48 43 52 59 60
23 22 21 19 15 17 15 17 19 22 25 28 33 33 34 33 33 34 41 44 41 47 54 54 51 52 49 52 47 48 50 50 52 55 53 55 54 56 57 59 58 54 61
20 19 18 17 18 19 22 23 20 28 27 28 30 30 26 21 24 36 36 34 41 46 45 48 49 48 48 52 51 50 48 50 53 59 62 60 61 62 62 67 66 66 63
18 19 20 21 23 23 23 24 26 27 28 29 30 27 28 31 32 32 32 31 29 33 41 44 50 52 53 55 58 59 61 60 59 60 62 64 63 60 56 54 49 48 44
15 16 18 19 25 23 26 26 27 27 29 27 24 24 25 29 32 39 40 40 37 42 47 48 43 39 37 38 39 38 43 47 52 54 53 51 50 49 47 42 33 27 27
11 10 12 13 17 22 24 26 32 31 35 36 35 35 40 44 48 48 50 53 53 53 53 50 40 34 37 34 33 41 42 41 40 39 39 42 45 39 29 20 19 30 45
13 11 10 14 16 19 23 25 25 33 27 29 37 30 33 40 46 47 47 52 57 56 45 38 33 35 35 39 41 39 36 31 26 27 24 28 30 27 23 27 43 59 72
8 9 10 12 15 17 20 24 26 28 28 23 36 37 38 39 41 42 42 38 30 28 26 26 32 38 39 37 34 31 27 24 21 18 23 25 26 28 34 49 65 70 64
4 3 10 13 14 19 22 21 22 25 26 26 26 34 40 30 26 25 21 19 15 15 17 26 29 32 31 27 25 21 18 16 16 18 22 27 33 44 59 64 61 54 51
9 15 17 14 14 17 20 24 25 26 27 30 28 25 33 28 22 20 17 17 20 23 25 21 19 16 16 14 12 11 12 15 21 26 34 42 53 60 60 60 57 47 38
9 13 18 16 16 19 23 24 27 27 27 34 30 32 29 25 24 20 17 16 16 17 16 14 14 12 12 14 16 19 23 28 33 45 60 61 54 59 52 47 42 32 27
9 11 14 17 21 23 27 26 24 24 27 26 25 24 21 18 17 15 11 8 6 6 8 10 14 19 24 26 29 32 39 51 58 58 51 49 50 47 36 27 24 24 23
10 13 16 20 22 28 23 28 29 26 23 21 18 14 13 7 6 10 13 16 18 20 20 21 29 34 35 38 35 37 48 52 46 45 46 38 28 22 24 23 22 21 22
13 18 19 21 21 22 28 30 31 28 22 20 16 14 9 9 13 15 14 17 18 21 24 23 25 29 35 43 37 31 28 29 24 19 20 19 22 25 25 23 21 21 23
12 20 23 23 20 23 26 21 19 21 21 23 19 19 17 18 16 16 17 18 17 19 21 19 19 24 23 22 17 23 32 33 24 23 23 23 24 27 24 23 21 22 21
14 21 25 22 20 22 21 19 21 21 22 26 28 25 24 21 18 20 17 17 17 17 18 17 19 20 20 19 22 24 27 35 33 28 24 22 23 25 24 20 21 20 22
Wind_Direction_500mb
205 209 205 212 214 220 221 228 231 231 233 238 232 231 237 241 239 229 234 227 241 243 245 247 242 245 248 257 262 257 261 254 267 274 271 333 218 237 247 252 254 257 271
201 208 217 210 221 215 224 227 230 235 246 233 225 237 239 237 240 242 237 236 252 238 245 244 249 260 269 261 253 266 250 261 259 281 278 283 288 271 250 249 242 241 271
205 210 213 217 218 219 223 227 229 233 235 234 242 229 240 238 234 235 251 237 236 244 251 254 247 252 249 252 241 248 259 251 253 259 260 266 255 231 252 247 245 238 255
201 210 211 212 217 221 224 225 230 240 227 230 231 247 238 242 240 236 235 238 240 242 244 252 254 253 250 264 259 240 253 258 248 252 258 259 256 259 255 255 249 254 259
202 209 210 219 218 222 224 227 228 238 239 230 237 233 242 243 244 247 239 233 249 243 243 246 250 253 250 243 244 251 244 251 242 257 253 250 246 237 247 251 258 264 254
203 214 211 218 218 220 232 245 238 238 240 238 242 243 244 243 249 245 243 240 244 247 246 249 246 241 242 243 245 242 241 248 256 248 255 262 266 263 251 251 245 253 245
200 202 206 208 210 216 222 231 235 239 240 251 247 253 257 253 247 247 242 244 240 243 247 248 247 252 259 264 263 257 255 251 253 254 252 247 249 251 262 264 256 259 260
197 199 203 206 212 224 230 238 244 247 247 248 253 258 257 256 261 254 249 250 248 246 242 245 253 247 243 252 257 252 261 261 257 253 252 256 259 260 256 262 264 258 251
196 206 215 221 226 234 244 246 247 250 252 255 256 261 263 264 264 262 260 255 253 255 252 250 245 250 251 253 248 250 256 256 252 265 271 274 273 265 259 260 254 249 244
189 198 206 217 222 229 238 252 260 264 266 266 263 265 268 269 260 261 269 263 253 250 256 265 265 261 259 258 254 253 256 258 258 252 256 257 261 264 265 255 255 252 247
186 190 196 198 200 213 226 236 247 255 262 266 267 264 256 257 259 263 268 269 255 251 249 252 256 256 260 253 251 252 257 262 261 261 262 263 262 262 266 259 251 254 252
181 183 187 194 200 223 224 240 244 252 261 274 287 281 277 281 284 275 266 266 258 249 249 251 254 258 259 262 260 259 262 264 261 262 267 266 260 257 257 252 264 262 264
185 193 207 223 237 243 250 262 274 288 278 277 273 266 276 264 277 283 281 270 259 258 258 255 254 262 266 267 269 267 269 269 269 268 266 263 262 259 261 257 264 272 268
203 215 227 238 245 248 258 268 271 279 279 279 274 274 269 283 269 275 279 279 279 272 263 262 265 270 272 270 268 269 268 271 273 272 269 268 269 267 267 268 269 267 260
207 220 230 241 252 256 262 265 264 271 265 271 269 262 265 264 261 263 267 276 278 278 280 275 275 274 272 270 275 268 266 267 272 269 271 274 266 257 251 254 255 251 237
190 213 226 244 253 266 273 277 272 269 281 290 288 262 248 256 260 266 270 273 277 276 272 270 270 263 266 267 265 271 274 274 271 266 264 262 254 245 242 223 199 192 173
190 210 242 266 273 274 276 279 279 286 283 299 302 290 278 273 273 274 275 275 276 278 267 258 260 262 262 264 269 270 273 270 264 256 244 235 222 207 188 179 175 169 147
190 238 254 273 279 280 280 278 276 279 281 286 294 291 291 286 285 284 280 279 277 268 251 248 252 257 270 269 264 263 260 255 240 230 217 207 192 175 167 164 156 147 144
193 260 271 285 286 278 287 278 276 279 279 280 279 296 296 305 296 289 281 258 244 257 250 250 263 268 266 259 253 247 250 231 208 191 185 175 166 163 151 147 144 144 141
220 240 276 282 286 287 287 287 286 282 286 283 281 278 281 299 290 282 270 255 248 247 253 257 261 258 246 235 225 211 198 177 167 164 156 152 145 144 142 140 137 132 132
230 272 295 290 297 289 279 279 278 280 280 284 285 280 292 283 280 273 262 250 248 253 249 243 241 225 199 171 160 155 152 151 151 145 139 141 144 143 135 125 126 130 146
249 271 279 287 291 294 284 275 278 272 275 270 282 277 289 276 270 260 246 224 189 195 210 186 164 143 132 130 132 135 137 136 137 140 141 140 141 137 134 137 141 152 159
259 274 284 294 296 292 298 288 274 261 260 261 262 255 278 258 164 130 118 126 122 123 114 121 125 127 127 129 132 135 138 139 137 136 135 135 148 170 160 164 164 167 167
267 280 288 294 295 283 294 306 267 249 248 248 232 221 207 134 119 134 145 143 148 142 135 127 133 135 133 129 127 128 134 142 148 154 165 168 167 165 167 171 172 167 164
272 280 285 296 301 294 294 302 250 236 248 227 214 207 188 169 166 156 157 152 148 136 132 143 145 146 139 144 150 172 175 167 160 167 164 166 167 167 169 171 171 171 174
270 284 283 283 282 282 277 279 249 246 255 244 200 188 193 166 175 177 170 170 171 165 164 164 175 167 179 171 192 201 201 180 162 156 160 165 169 166 172 177 178 185 186
Wind_Speed_850mb
39 39 39 35 34 33 32 29 28 30 32 31 34 30 29 29 32 31 30 31 22 19 24 22 23 27 24 23 23 23 28 23 26 21 11 10 10 9 18 24 21 25 20
43 41 42 38 36 33 32 32 29 29 34 33 33 30 33 33 33 31 33 28 31 28 27 27 26 23 29 24 29 22 24 28 23 31 22 18 15 19 25 26 19 23 27
41 42 41 40 40 41 38 35 34 34 33 32 35 33 31 31 30 32 33 30 31 32 31 32 30 31 29 34 29 26 24 24 26 26 26 25 24 16 26 28 27 34 34
45 44 41 44 41 40 40 41 37 45 42 38 39 36 33 34 35 35 36 34 36 34 35 36 31 34 33 36 29 31 32 34 32 28 29 34 30 34 30 28 30 34 32
41 45 43 41 40 41 43 47 40 39 41 37 39 39 38 38 40 42 40 39 40 33 36 36 35 37 36 40 34 31 35 30 29 35 39 35 32 30 35 32 34 33 30
40 36 37 40 38 35 35 37 42 43 41 37 40 47 45 41 44 47 49 40 44 48 43 41 44 47 50 54 54 47 44 40 41 37 36 35 31 30 27 30 35 46 38
38 34 31 34 32 33 27 27 29 35 39 39 38 41 48 50 51 52 51 55 54 50 49 46 41 39 44 47 45 47 50 53 54 50 51 50 48 42 40 45 47 51 45
35 34 30 31 32 30 32 31 34 37 39 41 44 42 40 39 46 47 50 56 53 53 56 53 51 51 52 48 49 44 50 48 49 55 63 60 56 52 50 50 51 47 39
32 32 30 30 32 34 35 34 34 36 37 38 38 41 44 46 43 46 48 52 48 53 53 54 56 61 57 58 60 58 54 52 43 53 54 52 49 50 50 45 45 45 49
24 24 23 23 22 21 20 20 21 24 25 28 31 33 39 37 35 45 44 43 47 47 50 51 50 54 57 55 56 56 58 59 50 48 53 53 59 57 56 59 56 55 54
21 22 23 23 20 17 17 17 19 21 24 26 30 35 39 42 43 42 42 42 43 50 51 50 41 51 52 51 55 59 63 62 57 53 56 58 57 58 48 43 52 59 60
23 22 21 19 15 17 15 17 19 22 25 28 33 33 34 33 33 34 41 44 41 47 54 54 51 52 49 52 47 48 50 50 52 55 53 55 54 56 57 59 58 54 61
20 19 18 17 18 19 22 23 20 28 27 28 30 30 26 21 24 36 36 34 41 46 45 48 49 48 48 52 51 50 48 50 53 59 62 60 61 62 62 67 66 66 63
18 19 20 21 23 23 23 24 26 27 28 29 30 27 28 31 32 32 32 31 29 33 41 44 50 52 53 55 58 59 61 60 59 60 62 64 63 60 56 54 49 48 44
15 16 18 19 25 23 26 26 27 27 29 27 24 24 25 29 32 39 40 40 37 42 47 48 43 39 37 38 39 38 43 47 52 54 53 51 50 49 47 42 33 27 27
11 10 12 13 17 22 24 26 32 31 35 36 35 35 40 44 48 48 50 53 53 53 53 50 40 34 37 34 33 41 42 41 40 39 39 42 45 39 29 20 19 30 45
13 11 10 14 16 19 23 25 25 33 27 29 37 30 33 40 46 47 47 52 57 56 45 38 33 35 35 39 41 39 36 31 26 27 24 28 30 27 23 27 43 59 72
8 9 10 12 15 17 20 24 26 28 28 23 36 37 38 39 41 42 42 38 30 28 26 26 32 38 39 37 34 31 27 24 21 18 23 25 26 28 34 49 65 70 64
4 3 10 13 14 19 22 21 22 25 26 26 26 34 40 30 26 25 21 19 15 15 17 26 29 32 31 27 25 21 18 16 16 18 22 27 33 44 59 64 61 54 51
9 15 17 14 14 17 20 24 25 26 27 30 28 25 33 28 22 20 17 17 20 23 25 21 19 16 16 14 12 11 12 15 21 26 34 42 53 60 60 60 57 47 38
9 13 18 16 16 19 23 24 27 27 27 34 30 32 29 25 24 20 17 16 16 17 16 14 14 12 12 14 16 19 23 28 33 45 60 61 54 59 52 47 42 32 27
9 11 14 17 21 23 27 26 24 24 27 26 25 24 21 18 17 15 11 8 6 6 8 10 14 19 24 26 29 32 39 51 58 58 51 49 50 47 36 27 24 24 23
10 13 16 20 22 28 23 28 29 26 23 21 18 14 13 7 6 10 13 16 18 20 20 21 29 34 35 38 35 37 48 52 46 45 46 38 28 22 24 23 22 21 22
13 18 19 21 21 22 28 30 31 28 22 20 16 14 9 9 13 15 14 17 18 21 24 23 25 29 35 43 37 31 28 29 24 19 20 19 22 25 25 23 21 21 23
12 20 23 23 20 23 26 21 19 21 21 23 19 19 17 18 16 16 17 18 17 19 21 19 19 24 23 22 17 23 32 33 24 23 23 23 24 27 24 23 21 22 21
14 21 25 22 20 22 21 19 21 21 22 26 28 25 24 21 18 20 17 17 17 17 18 17 19 20 20 19 22 24 27 35 33 28 24 22 23 25 24 20 21 20 22
Wind_Direction_850mb
205 209 205 212 214 220 221 228 231 231 233 238 232 231 237 241 239 229 234 227 241 243 245 247 242 245 248 257 262 257 261 254 267 274 271 333 218 237 247 252 254 257 271
201 208 217 210 221 215 224 227 230 235 246 233 225 237 239 237 240 242 237 236 252 238 245 244 249 260 269 261 253 266 250 261 259 281 278 283 288 271 250 249 242 241 271
205 210 213 217 218 219 223 227 229 233 235 234 242 229 240 238 234 235 251 237 236 244 251 254 247 252 249 252 241 248 259 251 253 259 260 266 255 231 252 247 245 238 255
201 210 211 212 217 221 224 225 230 240 227 230 231 247 238 242 240 236 235 238 240 242 244 252 254 253 250 264 259 240 253 258 248 252 258 259 256 259 255 255 249 254 259
202 209 210 219 218 222 224 227 228 238 239 230 237 233 242 243 244 247 239 233 249 243 243 246 250 253 250 243 244 251 244 251 242 257 253 250 246 237 247 251 258 264 254
203 214 211 218 218 220 232 245 238 238 240 238 242 243 244 243 249 245 243 240 244 247 246 249 246 241 242 243 245 242 241 248 256 248 255 262 266 263 251 251 245 253 245
200 202 206 208 210 216 222 231 235 239 240 251 247 253 257 253 247 247 242 244 240 243 247 248 247 252 259 264 263 257 255 251 253 254 252 247 249 251 262 264 256 259 260
197 199 203 206 212 224 230 238 244 247 247 248 253 258 257 256 261 254 249 250 248 246 242 245 253 247 243 252 257 252 261 261 257 253 252 256 259 260 256 262 264 258 251
196 206 215 221 226 234 244 246 247 250 252 255 256 261 263 264 264 262 260 255 253 255 252 250 245 250 251 253 248 250 256 256 252 265 271 274 273 265 259 260 254 249 244
189 198 206 217 222 229 238 252 260 264 266 266 263 265 268 269 260 261 269 263 253 250 256 265 265 261 259 258 254 253 256 258 258 252 256 257 261 264 265 255 255 252 247
186 190 196 198 200 213 226 236 247 255 262 266 267 264 256 257 259 263 268 269 255 251 249 252 256 256 260 253 251 252 257 262 261 261 262 263 262 262 266 259 251 254 252
181 183 187 194 200 223 224 240 244 252 261 274 287 281 277 281 284 275 266 266 258 249 249 251 254 258 259 262 260 259 262 264 261 262 267 266 260 257 257 252 264 262 264
185 193 207 223 237 243 250 262 274 288 278 277 273 266 276 264 277 283 281 270 259 258 258 255 254 262 266 267 269 267 269 269 269 268 266 263 262 259 261 257 264 272 268
203 215 227 238 245 248 258 268 271 279 279 279 274 274 269 283 269 275 279 279 279 272 263 262 265 270 272 270 268 269 268 271 273 272 269 268 269 267 267 268 269 267 260
207 220 230 241 252 256 262 265 264 271 265 271 269 262 265 264 261 263 267 276 278 278 280 275 275 274 272 270 275 268 266 267 272 269 271 274 266 257 251 254 255 251 237
190 213 226 244 253 266 273 277 272 269 281 290 288 262 248 256 260 266 270 273 277 276 272 270 270 263 266 267 265 271 274 274 271 266 264 262 254 245 242 223 199 192 173
190 210 242 266 273 274 276 279 279 286 283 299 302 290 278 273 273 274 275 275 276 278 267 258 260 262 262 264 269 270 273 270 264 256 244 235 222 207 188 179 175 169 147
190 238 254 273 279 280 280 278 276 279 281 286 294 291 291 286 285 284 280 279 277 268 251 248 252 257 270 269 264 263 260 255 240 230 217 207 192 175 167 164 156 147 144
193 260 271 285 286 278 287 278 276 279 279 280 279 296 296 305 296 289 281 258 244 257 250 250 263 268 266 259 253 247 250 231 208 191 185 175 166 163 151 147 144 144 141
220 240 276 282 286 287 287 287 286 282 286 283 281 278 281 299 290 282 270 255 248 247 253 257 261 258 246 235 225 211 198 177 167 164 156 152 145 144 142 140 137 132 132
230 272 295 290 297 289 279 279 278 280 280 284 285 280 292 283 280 273 262 250 248 253 249 243 241 225 199 171 160 155 152 151 151 145 139 141 144 143 135 125 126 130 146
249 271 279 287 291 294 284 275 278 272 275 270 282 277 289 276 270 260 246 224 189 195 210 186 164 143 132 130 132 135 137 136 137 140 141 140 141 137 134 137 141 152 159
259 274 284 294 296 292 298 288 274 261 260 261 262 255 278 258 164 130 118 126 122 123 114 121 125 127 127 129 132 135 138 139 137 136 135 135 148 170 160 164 164 167 167
267 280 288 294 295 283 294 306 267 249 248 248 232 221 207 134 119 134 145 143 148 142 135 127 133 135 133 129 127 128 134 142 148 154 165 168 167 165 167 171 172 167 164
272 280 285 296 301 294 294 302 250 236 248 227 214 207 188 169 166 156 157 152 148 136 132 143 145 146 139 144 150 172 175 167 160 167 164 166 167 167 169 171 171 171 174
270 284 283 283 282 282 277 279 249 246 255 244 200 188 193 166 175 177 170 170 171 165 164 164 175 167 179 171 192 201 201 180 162 156 160 165 169 166 172 177 178 185 186